{"data":{"norad_id":57895,"intl_designator":"2023-146E","name":"STARLINK-30467","alt_names":[],"object_type":"PAYLOAD","status":"ACTIVE","operator":null,"country":"US","launch_date":"2023-09-20","launch_site_code":"AFETR","launch_vehicle":null,"mission":null,"orbit_class":"UNKNOWN","rcs_meters":null,"size_class":null,"mass_kg":null,"dimensions":null,"purposes":["comms"],"wikipedia_slug":null,"has_3d_model":false,"image_url":null,"decayed_at":null,"tle_current":{"epoch":"2026-09-20T09:01:08.718240Z","epoch_age_seconds":145369,"freshness":"FRESH","line1":"1 57895U 23146E   26263.37579535  .00001547  00000+0  65756-4 0  9992","line2":"2 57895  42.9983 294.4927 0001415 268.0652  92.0037 15.27574694166822","mean_motion":15.27574694,"eccentricity":0.0001415,"inclination_deg":42.9983,"raan_deg":294.4927,"arg_perigee_deg":268.0652,"mean_anomaly_deg":92.0037,"bstar":6.5756e-5,"rev_number":16682,"period_min":94.267076147309,"perigee_km":482.09412407771,"apogee_km":484.03584423923,"semimajor_km":6861.2019841585,"source":"CELESTRAK","updated_at":"2026-09-21T09:00:33.721248Z"}}}